Overview Statistics Trail Chart Weather Telemetry Raw packets
 

This is the latest recevied weather packets stored in our database for station/object K0QED. If no packets are shown the sender has not sent any weather packets the latest 10 day(s).

<< 1 2 3 4 5 6 >>
Time Temp. Humidity Pressure Rain* Wind** Luminosity Snow
1788622308 25° C 37% 1025.9 hPa 0 mm - 68 W/m² -
1788622003 25° C 37% 1025.6 hPa 0 mm - 53 W/m² -
1788621698 24.44° C 38% 1025.7 hPa 0 mm - 51 W/m² -
1788621393 24.44° C 41% 1026.1 hPa 0 mm - 48 W/m² -
1788621088 23.89° C 40% 1025.9 hPa 0 mm - 55 W/m² -
1788620784 23.89° C 39% 1026.1 hPa 0 mm - 116 W/m² -
1788620482 23.89° C 39% 1025.9 hPa 0 mm - 73 W/m² -
1788620180 23.89° C 40% 1025.9 hPa 0 mm - 142 W/m² -
1788619880 23.33° C 40% 1025.6 hPa 0 mm - 93 W/m² -
1788619574 23.33° C 41% 1026 hPa 0 mm - 72 W/m² -
1788619273 22.78° C 44% 1025.9 hPa 0 mm - 60 W/m² -
1788618994 22.22° C 44% 1026 hPa 0 mm - 60 W/m² -
1788618663 21.67° C 46% 1026.2 hPa 0 mm - 48 W/m² -
1788618361 21.11° C 47% 1026.2 hPa 0 mm - 46 W/m² -
1788618056 21.11° C 47% 1026 hPa 0 mm - 46 W/m² -
1788617750 21.11° C 49% 1025.6 hPa 0 mm - 43 W/m² -
1788617447 20.56° C 48% 1025.9 hPa 0 mm - 39 W/m² -
1788617142 20° C 51% 1025.9 hPa 0 mm - 31 W/m² -
1788616841 20° C 51% 1025.6 hPa 0 mm - 29 W/m² -
1788616537 19.44° C 54% 1025.9 hPa 0 mm - 28 W/m² -
1788616237 18.33° C 57% 1025.7 hPa 0 mm - 29 W/m² -
1788615937 18.33° C 59% 1025.6 hPa 0 mm - 27 W/m² -
1788615668 17.78° C 60% 1025.7 hPa 0 mm - 27 W/m² -
1788615331 17.22° C 63% 1025.6 hPa 0 mm - 32 W/m² -
1788615031 16.67° C 65% 1025.9 hPa 0 mm - 38 W/m² -

* Rain latest hour (hover to see other rain measurements)
** Current wind speed in m/s (hover to see current wind gust speed)